EW2310 Weather Reports


Display with metric or nautical units.
time (UTC)temp
F
wind
direction
speed
MPH
gust
MPH
rain 1hr
in
rain 24hr
in
rain mn
in
humidity
%
barometer
mb
20260506062044 59 134 8.0 14.0 0.00 0.00 0.00 77 1011.9
20260506061544 59 121 9.0 17.0 0.00 0.00 0.00 76 1011.8
20260506061044 59 128 8.0 15.0 0.00 0.00 0.00 76 1011.8
20260506060544 59 134 4.0 12.0 0.00 0.00 0.00 75 1011.8
20260506051044 58 158 5.0 6.0 0.00 0.00 0.00 78 1011.8
20260506050544 59 155 3.0 9.0 0.00 0.00 0.00 78 1011.8
20260506045044 59 144 6.0 10.0 0.00 0.00 0.00 75 1011.9
20260506044544 59 154 6.0 8.0 0.00 0.00 0.00 74 1012.0
20260506044044 60 144 8.0 8.0 0.00 0.00 0.00 73 1012.0
20260506043544 60 161 5.0 11.0 0.00 0.01 0.00 73 1012.0
20260506043044 60 150 3.0 8.0 0.00 0.01 0.00 71 1012.0
20260506042544 60 153 5.0 8.0 0.00 0.01 0.00 72 1012.0
20260506042044 60 148 4.0 11.0 0.00 0.01 0.00 73 1011.9
20260506041544 60 148 5.0 9.0 0.00 0.01 0.00 72 1011.9
20260506041044 60 134 5.0 11.0 0.00 0.01 0.00 72 1011.9
20260506040544 60 141 7.0 9.0 0.00 0.02 0.00 73 1011.9
20260506040044 60 143 5.0 7.0 0.00 0.02 0.00 73 1011.9
20260506035547 60 155 7.0 8.0 0.00 0.02 0.00 73 1011.8
20260506035044 60 165 6.0 6.0 0.00 0.02 0.00 72 1011.9
20260506034544 60 151 3.0 5.0 0.00 0.02 0.00 72 1011.9
20260506034044 60 150 2.0 5.0 0.00 0.03 0.00 71 1012.0
20260506033544 60 150 3.0 7.0 0.00 0.03 0.00 71 1012.0
20260506033047 60 157 3.0 6.0 0.00 0.03 0.00 71 1012.1
20260506032544 60 160 5.0 6.0 0.00 0.03 0.00 71 1012.2
20260506032044 60 163 5.0 6.0 0.00 0.03 0.00 71 1012.2
20260506031544 60 165 4.0 6.0 0.00 0.03 0.00 71 1012.2
20260506031044 60 167 3.0 5.0 0.00 0.03 0.00 71 1012.3
20260506030547 60 168 4.0 7.0 0.00 0.03 0.00 71 1012.2
20260506030044 60 175 4.0 6.0 0.00 0.03 0.00 71 1012.3
20260506025544 60 150 3.0 8.0 0.00 0.03 0.00 71 1012.3
20260506025044 60 151 5.0 7.0 0.00 0.04 0.00 71 1012.3
20260506024544 60 132 2.0 7.0 0.00 0.04 0.00 71 1012.3
20260506024044 60 140 5.0 8.0 0.00 0.04 0.00 72 1012.4
20260506023544 60 143 4.0 8.0 0.00 0.05 0.00 72 1012.4
20260506023044 60 161 6.0 6.0 0.00 0.06 0.00 72 1012.4
20260506022547 60 164 4.0 7.0 0.00 0.06 0.00 73 1012.4
20260506022044 60 155 3.0 7.0 0.00 0.07 0.00 73 1012.4
20260506021546 60 152 2.0 9.0 0.00 0.07 0.00 73 1012.3
20260506021046 60 157 5.0 8.0 0.00 0.07 0.00 73 1012.3
20260506020544 60 142 3.0 9.0 0.00 0.07 0.00 73 1012.3
20260506020047 60 149 5.0 8.0 0.00 0.07 0.00 73 1012.3
20260506015547 60 145 5.0 9.0 0.00 0.07 0.00 74 1012.4
20260506015044 60 146 5.0 7.0 0.00 0.07 0.00 74 1012.4
20260506014544 60 150 3.0 8.0 0.00 0.07 0.00 74 1012.5
20260506014047 60 154 4.0 9.0 0.00 0.07 0.00 74 1012.4
20260506013544 60 157 7.0 9.0 0.00 0.07 0.00 74 1012.4
20260506013044 60 150 6.0 10.0 0.00 0.07 0.00 74 1012.6
20260506012544 60 126 8.0 11.0 0.00 0.07 0.00 74 1012.5
20260506012044 60 142 4.0 9.0 0.00 0.07 0.00 75 1012.5
20260506011544 60 156 6.0 9.0 0.00 0.07 0.00 75 1012.4
20260506011044 60 158 5.0 9.0 0.00 0.07 0.00 75 1012.4
20260506010544 60 159 7.0 9.0 0.00 0.07 0.00 75 1012.4
20260506010044 60 157 7.0 10.0 0.00 0.07 0.00 75 1012.5
20260506005544 60 136 7.0 13.0 0.00 0.07 0.00 75 1012.4
20260506005044 60 125 9.0 12.0 0.00 0.07 0.00 75 1012.4
20260506004547 60 142 6.0 12.0 0.00 0.07 0.00 76 1012.5
20260506004044 60 140 8.0 11.0 0.00 0.07 0.00 76 1012.6
20260506003544 60 157 5.0 11.0 0.00 0.07 0.00 76 1012.6
20260506003044 60 139 8.0 12.0 0.00 0.07 0.00 76 1012.6
20260506002547 60 143 8.0 13.0 0.00 0.07 0.00 76 1012.6
20260506002044 60 138 5.0 13.0 0.00 0.07 0.00 76 1012.7
20260506001544 60 146 10.0 14.0 0.00 0.08 0.00 76 1012.7
20260506001044 60 150 8.0 10.0 0.00 0.08 0.00 76 1012.8
20260506000544 60 146 8.0 10.0 0.00 0.09 0.00 76 1012.8
20260506000044 60 161 5.0 11.0 0.00 0.09 0.00 76 1012.9
20260505235547 60 138 8.0 10.0 0.00 0.09 0.00 76 1013.0
20260505235047 60 115 9.0 10.0 0.00 0.09 0.00 76 1013.0
20260505234544 60 142 10.0 10.0 0.00 0.09 0.00 75 1013.0
20260505234044 60 137 8.0 10.0 0.00 0.09 0.00 75 1013.1
20260505233544 61 146 6.0 9.0 0.00 0.09 0.00 75 1013.0
20260505233044 61 173 6.0 9.0 0.00 0.09 0.00 74 1013.1
20260505232544 60 149 5.0 12.0 0.00 0.09 0.00 74 1013.0
20260505232044 60 131 8.0 11.0 0.00 0.09 0.00 74 1013.1
20260505231544 60 127 5.0 10.0 0.00 0.09 0.00 74 1013.1
20260505231047 60 142 9.0 12.0 0.00 0.09 0.00 73 1013.1
20260505230544 61 133 5.0 13.0 0.00 0.09 0.00 73 1013.2
20260505230044 61 150 5.0 11.0 0.00 0.09 0.00 73 1013.2
20260505225547 61 123 7.0 11.0 0.00 0.09 0.00 73 1013.1
20260505225043 61 154 8.0 10.0 0.00 0.09 0.00 73 1013.1
20260505224544 61 146 4.0 12.0 0.00 0.09 0.00 73 1013.2
20260505224047 61 144 11.0 10.0 0.00 0.09 0.00 73 1013.3
20260505223544 61 146 8.0 11.0 0.00 0.09 0.00 73 1013.3
20260505223044 61 113 9.0 12.0 0.00 0.09 0.00 73 1013.3
20260505222544 61 150 6.0 10.0 0.00 0.09 0.00 73 1013.4
20260505222044 61 128 2.0 9.0 0.00 0.09 0.00 73 1013.4
20260505221544 61 167 9.0 10.0 0.00 0.09 0.00 73 1013.5
20260505221044 61 144 5.0 10.0 0.00 0.09 0.00 73 1013.6
20260505220544 61 142 5.0 8.0 0.00 0.09 0.00 73 1013.7
20260505220047 61 140 5.0 8.0 0.00 0.09 0.00 74 1013.7
20260505215544 61 117 6.0 7.0 0.00 0.09 0.00 74 1013.9
20260505215043 61 148 5.0 10.0 0.00 0.09 0.00 74 1013.9
20260505214547 61 152 8.0 11.0 0.00 0.09 0.00 75 1013.9
20260505214044 61 124 9.0 10.0 0.00 0.09 0.00 75 1013.9
20260505213543 61 140 9.0 13.0 0.00 0.09 0.00 75 1013.9
20260505213046 61 152 7.0 10.0 0.00 0.09 0.00 76 1013.9
20260505212544 61 157 7.0 11.0 0.00 0.09 0.00 76 1013.9
20260505212043 61 148 5.0 12.0 0.00 0.09 0.00 76 1014.0
20260505211543 61 160 6.0 10.0 0.00 0.09 0.00 76 1013.9
20260505211044 61 136 8.0 10.0 0.00 0.09 0.00 77 1013.9
20260505210544 61 117 8.0 12.0 0.00 0.09 0.00 78 1013.8
20260505210044 61 153 7.0 11.0 0.00 0.09 0.00 79 1013.8
20260505205543 61 156 7.0 12.0 0.00 0.09 0.00 79 1013.8
20260505205044 61 134 8.0 13.0 0.00 0.09 0.00 79 1013.9
20260505204544 61 146 5.0 12.0 0.00 0.09 0.00 78 1014.0
20260505204044 62 111 9.0 12.0 0.00 0.09 0.00 78 1014.1
20260505203544 62 161 7.0 10.0 0.00 0.09 0.00 78 1014.0
20260505203043 62 148 8.0 14.0 0.00 0.09 0.00 78 1014.1
20260505202544 62 140 8.0 12.0 0.00 0.09 0.00 77 1014.1
20260505202044 62 168 5.0 10.0 0.00 0.09 0.00 77 1014.2
20260505201544 62 147 8.0 11.0 0.00 0.09 0.00 77 1014.2
20260505201044 62 173 5.0 13.0 0.00 0.09 0.00 76 1014.2
20260505200544 62 169 6.0 11.0 0.00 0.09 0.00 76 1014.3
20260505200044 62 134 5.0 9.0 0.00 0.09 0.00 76 1014.3
20260505195546 62 156 5.0 11.0 0.00 0.09 0.00 75 1014.2
20260505195044 62 141 9.0 10.0 0.00 0.09 0.00 75 1014.2
20260505194544 62 156 8.0 9.0 0.00 0.09 0.00 75 1014.1
20260505194046 62 165 6.0 12.0 0.00 0.09 0.00 75 1014.0
20260505193543 62 157 6.0 14.0 0.00 0.09 0.00 75 1013.9
20260505193047 62 150 8.0 13.0 0.00 0.09 0.00 75 1013.9
20260505192544 62 148 9.0 12.0 0.00 0.09 0.00 75 1013.9
20260505192043 62 157 6.0 13.0 0.00 0.09 0.00 75 1013.8
20260505191544 62 138 8.0 12.0 0.00 0.09 0.00 76 1013.8
20260505191047 62 157 6.0 13.0 0.00 0.09 0.00 77 1013.7
20260505190543 62 154 4.0 14.0 0.00 0.09 0.00 77 1013.6
20260505190047 62 146 6.0 9.0 0.00 0.09 0.00 77 1013.6
20260505185544 62 139 9.0 11.0 0.00 0.09 0.00 77 1013.7
20260505185044 62 157 8.0 11.0 0.00 0.09 0.00 77 1013.6
20260505184544 62 159 8.0 11.0 0.00 0.09 0.00 77 1013.6
20260505184043 62 144 5.0 13.0 0.00 0.09 0.00 77 1013.5
20260505183543 62 147 6.0 13.0 0.00 0.09 0.00 77 1013.5
20260505183044 62 155 4.0 14.0 0.00 0.09 0.00 76 1013.6
20260505182544 62 155 8.0 12.0 0.00 0.09 0.00 75 1013.5
20260505182044 63 165 9.0 12.0 0.00 0.09 0.00 74 1013.6
20260505181543 63 140 7.0 13.0 0.00 0.09 0.00 73 1013.6
20260505181046 63 187 12.0 16.0 0.00 0.09 0.00 73 1013.5
20260505180543 63 155 7.0 16.0 0.00 0.09 0.00 74 1013.4
20260505180043 63 165 11.0 15.0 0.00 0.09 0.00 74 1013.1
20260505175544 63 108 12.0 14.0 0.00 0.09 0.00 74 1013.3
20260505175044 63 159 6.0 12.0 0.00 0.09 0.00 74 1013.5
20260505174543 63 152 11.0 11.0 0.00 0.09 0.00 73 1013.5
20260505174044 63 149 9.0 13.0 0.00 0.09 0.00 73 1013.5
20260505173543 63 160 8.0 15.0 0.00 0.09 0.00 74 1013.5
20260505173046 64 157 5.0 10.0 0.00 0.09 0.00 74 1013.5
20260505172543 64 161 6.0 12.0 0.00 0.09 0.00 74 1013.5
20260505172043 64 142 4.0 13.0 0.00 0.09 0.00 74 1013.6
20260505171543 64 158 7.0 12.0 0.00 0.09 0.00 73 1013.5
20260505171043 64 133 10.0 14.0 0.00 0.09 0.00 73 1013.6
20260505170543 64 150 13.0 13.0 0.00 0.09 0.00 73 1013.6
20260505170047 64 162 5.0 11.0 0.00 0.09 0.00 73 1013.6
20260505165543 64 179 4.0 10.0 0.00 0.09 0.00 73 1013.6
20260505165044 64 154 8.0 11.0 0.00 0.09 0.00 73 1013.6
20260505164543 64 151 10.0 13.0 0.00 0.09 0.00 73 1013.7
20260505164044 64 119 5.0 12.0 0.00 0.09 0.00 73 1013.6
20260505163543 64 134 11.0 12.0 0.00 0.09 0.00 73 1013.7
20260505163044 64 155 8.0 14.0 0.00 0.09 0.00 73 1013.7
20260505162543 64 155 11.0 16.0 0.00 0.09 0.00 72 1013.8
20260505162046 64 168 6.0 12.0 0.00 0.09 0.00 72 1013.9
20260505161544 65 158 13.0 14.0 0.00 0.09 0.00 72 1014.0
20260505161044 65 153 7.0 14.0 0.00 0.09 0.00 72 1014.0
20260505160543 65 157 8.0 12.0 0.00 0.09 0.00 72 1013.9
20260505153043 65 167 10.0 15.0 0.00 0.09 0.00 71 1013.9
20260505152544 65 165 6.0 15.0 0.00 0.09 0.00 71 1013.8
20260505152043 65 153 11.0 16.0 0.00 0.09 0.00 70 1013.8
20260505151543 65 165 7.0 15.0 0.00 0.09 0.00 70 1013.9
20260505151043 65 159 10.0 13.0 0.00 0.09 0.00 70 1013.8
20260505150546 65 173 9.0 19.0 0.00 0.09 0.00 70 1013.7
20260505140544 64 168 7.0 19.0 0.00 0.09 0.00 71 1014.0
20260505124543 64 149 15.0 16.0 0.00 0.09 0.00 70 1014.5
20260505124043 65 156 9.0 19.0 0.00 0.09 0.00 70 1014.5
20260505123546 65 140 14.0 16.0 0.00 0.09 0.00 69 1014.5
20260505123044 64 151 12.0 16.0 0.00 0.09 0.00 69 1014.5
20260505122543 64 150 11.0 13.0 0.00 0.09 0.00 70 1014.4
20260505122043 64 155 8.0 18.0 0.00 0.09 0.00 69 1014.5
20260505121544 64 150 9.0 21.0 0.00 0.09 0.00 70 1014.6
20260505121043 64 150 11.0 17.0 0.00 0.09 0.00 69 1014.7
20260505120543 64 149 11.0 17.0 0.00 0.09 0.00 69 1014.6
20260505120043 64 143 15.0 17.0 0.00 0.09 0.00 69 1014.6
20260505115544 64 123 9.0 18.0 0.00 0.09 0.00 69 1014.6
20260505115044 64 194 10.0 16.0 0.00 0.09 0.00 69 1014.6
20260505114544 64 150 5.0 20.0 0.00 0.09 0.00 68 1014.5
20260505114044 64 167 17.0 17.0 0.00 0.09 0.00 68 1014.6
20260505113543 64 140 10.0 20.0 0.00 0.09 0.00 69 1014.6
20260505113043 64 146 13.0 21.0 0.00 0.09 0.00 69 1014.7
20260505112546 64 96 12.0 16.0 0.00 0.09 0.00 70 1014.9
20260505112043 64 133 14.0 18.0 0.00 0.09 0.00 69 1014.8
20260505111543 64 157 7.0 18.0 0.00 0.09 0.00 69 1014.9
20260505111043 64 141 16.0 20.0 0.00 0.09 0.00 68 1014.6
20260505110544 64 119 15.0 18.0 0.00 0.09 0.00 69 1014.8
20260505102043 63 123 11.0 17.0 0.00 0.09 0.00 69 1015.2
20260505101543 63 191 6.0 17.0 0.00 0.09 0.00 69 1015.1
20260505101043 63 121 13.0 18.0 0.00 0.09 0.00 70 1015.0
20260505100543 63 171 6.0 17.0 0.00 0.09 0.00 70 1015.0
20260505100043 63 144 9.0 15.0 0.00 0.09 0.00 69 1015.0
20260505095543 64 170 13.0 21.0 0.00 0.09 0.00 69 1015.0
20260505095043 63 180 17.0 22.0 0.00 0.09 0.00 69 1014.9
20260505094543 63 141 19.0 23.0 0.00 0.09 0.00 68 1014.8
20260505094043 63 145 13.0 23.0 0.00 0.09 0.00 68 1014.8
20260505093543 64 110 13.0 23.0 0.00 0.09 0.00 66 1014.9
20260505093043 64 144 12.0 21.0 0.00 0.09 0.00 69 1014.8
20260505092543 63 169 11.0 21.0 0.00 0.09 0.00 68 1014.8
20260505092043 62 130 10.0 17.0 0.00 0.09 0.00 70 1014.8
20260505091544 62 148 11.0 20.0 0.00 0.09 0.00 71 1014.8
20260505091046 62 125 16.0 18.0 0.00 0.09 0.00 71 1014.9
20260505090546 62 155 8.0 20.0 0.00 0.09 0.00 73 1014.8
20260505090043 62 148 12.0 22.0 0.00 0.09 0.00 73 1014.7
20260505085546 61 152 10.0 21.0 0.00 0.09 0.00 74 1014.7
20260505085043 61 115 16.0 18.0 0.00 0.09 0.00 75 1014.8
20260505084543 61 134 15.0 21.0 0.00 0.09 0.00 75 1014.9
20260505084043 61 173 18.0 19.0 0.00 0.09 0.00 76 1015.1
20260505083543 61 144 13.0 16.0 0.00 0.09 0.00 76 1015.1
20260505083043 61 170 13.0 15.0 0.00 0.09 0.00 76 1015.1
20260505082543 61 140 7.0 16.0 0.00 0.09 0.00 75 1015.0
20260505082043 61 161 15.0 19.0 0.00 0.09 0.00 74 1015.1
20260505081543 61 148 8.0 16.0 0.00 0.09 0.00 75 1014.9
20260505081043 61 180 14.0 19.0 0.00 0.09 0.00 75 1015.0
20260505080543 60 142 14.0 19.0 0.00 0.09 0.00 75 1015.1
20260505080046 61 170 8.0 19.0 0.00 0.09 0.00 75 1015.1
20260505075543 61 123 7.0 18.0 0.00 0.09 0.00 74 1015.1
20260505075043 61 165 13.0 14.0 0.00 0.09 0.00 74 1015.0
20260505074543 61 137 12.0 14.0 0.00 0.09 0.00 75 1015.0
20260505074043 60 164 9.0 18.0 0.00 0.09 0.00 74 1015.0
20260505073543 60 167 6.0 20.0 0.00 0.09 0.00 74 1015.0
20260505073043 60 141 15.0 16.0 0.00 0.09 0.00 74 1015.0
20260505072544 60 155 13.0 19.0 0.00 0.09 0.00 75 1014.9
20260505072043 60 172 13.0 15.0 0.00 0.09 0.00 75 1015.1
20260505071543 60 142 13.0 13.0 0.00 0.09 0.00 76 1015.0
20260505071043 60 174 9.0 17.0 0.00 0.09 0.00 76 1015.0
20260505070546 60 146 8.0 14.0 0.00 0.09 0.00 77 1015.0
20260505070043 59 153 7.0 14.0 0.00 0.09 0.00 78 1015.0